TimeCDT,TemperatureF,Dew PointF,Humidity,Sea Level PressureIn,VisibilityMPH,Wind Direction,Wind SpeedMPH,Gust SpeedMPH,PrecipitationIn,Events,Conditions,WindDirDegrees,DateUTC
12:15 AM,-9999,-9999,N/A,30.02,10.0,SE,4.6,-,N/A,,Clear,140,2012-10-24 05:15:00
12:35 AM,-9999,-9999,N/A,30.03,10.0,SE,4.6,-,N/A,,Clear,130,2012-10-24 05:35:00
1:16 AM,-9999,-9999,N/A,30.03,10.0,SE,5.8,-,N/A,,Clear,130,2012-10-24 06:16:00
1:35 AM,-9999,-9999,N/A,30.03,10.0,SE,5.8,-,N/A,,Clear,130,2012-10-24 06:35:00
1:55 AM,-9999,-9999,N/A,30.03,10.0,SE,5.8,-,N/A,,Clear,130,2012-10-24 06:55:00
2:35 AM,-9999,-9999,N/A,30.03,10.0,SE,6.9,-,N/A,,Clear,130,2012-10-24 07:35:00
2:55 AM,-9999,-9999,N/A,30.03,10.0,SE,5.8,-,N/A,,Clear,130,2012-10-24 07:55:00
3:35 AM,-9999,-9999,N/A,30.03,10.0,SE,5.8,-,N/A,,Clear,140,2012-10-24 08:35:00
3:55 AM,-9999,-9999,N/A,30.02,10.0,SE,5.8,-,N/A,,Clear,130,2012-10-24 08:55:00
4:35 AM,-9999,-9999,N/A,30.03,10.0,SE,6.9,-,N/A,,Clear,140,2012-10-24 09:35:00
4:55 AM,-9999,-9999,N/A,30.03,10.0,SE,5.8,-,N/A,,Clear,140,2012-10-24 09:55:00
5:15 AM,-9999,-9999,N/A,30.03,10.0,SE,5.8,-,N/A,,Clear,140,2012-10-24 10:15:00
5:35 AM,-9999,-9999,N/A,30.04,10.0,SE,6.9,-,N/A,,Clear,140,2012-10-24 10:35:00
5:55 AM,-9999,-9999,N/A,30.05,10.0,SSE,8.1,-,N/A,,Clear,150,2012-10-24 10:55:00
6:15 AM,-9999,-9999,N/A,30.05,10.0,SSE,8.1,-,N/A,,Clear,150,2012-10-24 11:15:00
6:36 AM,-9999,-9999,N/A,30.05,10.0,SSE,8.1,-,N/A,,Clear,150,2012-10-24 11:36:00
6:55 AM,-9999,-9999,N/A,30.05,10.0,SSE,8.1,-,N/A,,Clear,150,2012-10-24 11:55:00
7:15 AM,-9999,-9999,N/A,30.06,10.0,SSE,6.9,-,N/A,,Clear,150,2012-10-24 12:15:00
7:55 AM,-9999,-9999,N/A,30.07,10.0,SSE,6.9,-,N/A,,Clear,160,2012-10-24 12:55:00
8:15 AM,-9999,-9999,N/A,30.07,10.0,South,6.9,-,N/A,,Clear,170,2012-10-24 13:15:00
8:36 AM,-9999,-9999,N/A,30.08,10.0,South,10.4,-,N/A,,Clear,170,2012-10-24 13:36:00
8:55 AM,-9999,-9999,N/A,30.08,10.0,South,9.2,-,N/A,,Clear,170,2012-10-24 13:55:00
9:15 AM,-9999,-9999,N/A,30.08,10.0,South,10.4,-,N/A,,Clear,180,2012-10-24 14:15:00
9:55 AM,71.6,62.6,73,30.09,10.0,South,11.5,-,N/A,,Clear,180,2012-10-24 14:55:00
10:15 AM,73.4,64.4,73,30.08,10.0,South,9.2,-,N/A,,Clear,190,2012-10-24 15:15:00
10:35 AM,75.2,64.4,69,30.08,10.0,SSW,9.2,-,N/A,,Clear,200,2012-10-24 15:35:00
10:55 AM,75.2,64.4,69,30.08,10.0,South,12.7,-,N/A,,Clear,190,2012-10-24 15:55:00
11:15 AM,78.8,64.4,61,30.08,10.0,SSW,10.4,-,N/A,,Clear,200,2012-10-24 16:15:00
11:35 AM,78.8,64.4,61,30.07,10.0,SSW,13.8,-,N/A,,Partly Cloudy,210,2012-10-24 16:35:00
11:56 AM,78.8,62.6,57,30.07,10.0,South,12.7,-,N/A,,Scattered Clouds,180,2012-10-24 16:56:00
12:15 PM,80.6,64.4,58,30.06,10.0,South,15.0,-,N/A,,Scattered Clouds,180,2012-10-24 17:15:00
12:35 PM,80.6,64.4,58,30.05,10.0,SSW,11.5,-,N/A,,Partly Cloudy,200,2012-10-24 17:35:00
1:15 PM,82.4,64.4,54,30.03,10.0,SSW,11.5,17.3,N/A,,Partly Cloudy,200,2012-10-24 18:15:00
1:35 PM,82.4,64.4,54,30.01,10.0,South,11.5,17.3,N/A,,Partly Cloudy,190,2012-10-24 18:35:00
1:55 PM,80.6,62.6,54,30.01,10.0,SSW,12.7,-,N/A,,Scattered Clouds,210,2012-10-24 18:55:00
2:35 PM,82.4,62.6,51,30.00,10.0,South,13.8,-,N/A,,Scattered Clouds,190,2012-10-24 19:35:00
2:55 PM,80.6,62.6,54,29.99,10.0,South,11.5,-,N/A,,Scattered Clouds,190,2012-10-24 19:55:00
3:35 PM,82.4,64.4,54,29.98,10.0,SSE,15.0,18.4,N/A,,Scattered Clouds,150,2012-10-24 20:35:00
4:15 PM,80.6,62.6,54,29.98,10.0,SSE,13.8,-,N/A,,Partly Cloudy,150,2012-10-24 21:15:00
4:36 PM,80.6,62.6,54,29.98,10.0,South,17.3,-,N/A,,Partly Cloudy,170,2012-10-24 21:36:00
4:55 PM,80.6,62.6,54,29.97,10.0,SSE,10.4,-,N/A,,Partly Cloudy,150,2012-10-24 21:55:00
5:15 PM,80.6,60.8,51,29.97,10.0,SSE,12.7,-,N/A,,Clear,150,2012-10-24 22:15:00
5:36 PM,80.6,62.6,54,29.97,10.0,SSE,11.5,-,N/A,,Scattered Clouds,160,2012-10-24 22:36:00
5:55 PM,78.8,60.8,54,29.97,10.0,South,11.5,-,N/A,,Partly Cloudy,170,2012-10-24 22:55:00
6:15 PM,77.0,60.8,57,29.97,10.0,SSE,8.1,-,N/A,,Clear,160,2012-10-24 23:15:00
6:55 PM,75.2,60.8,61,29.97,10.0,SSE,8.1,-,N/A,,Clear,160,2012-10-24 23:55:00
7:15 PM,71.6,60.8,69,29.99,10.0,SSE,5.8,-,N/A,,Clear,160,2012-10-25 00:15:00
7:36 PM,71.6,60.8,69,29.99,10.0,SSE,6.9,-,N/A,,Clear,150,2012-10-25 00:36:00
7:55 PM,69.8,60.8,73,29.98,10.0,SE,6.9,-,N/A,,Clear,140,2012-10-25 00:55:00
8:15 PM,69.8,60.8,73,29.98,10.0,SE,6.9,-,N/A,,Clear,140,2012-10-25 01:15:00
8:35 PM,69.8,60.8,73,29.98,10.0,SSE,6.9,-,N/A,,Clear,150,2012-10-25 01:35:00
8:55 PM,69.8,59.0,68,29.98,10.0,SE,6.9,-,N/A,,Clear,140,2012-10-25 01:55:00
9:15 PM,68.0,59.0,73,29.98,10.0,SE,5.8,-,N/A,,Clear,140,2012-10-25 02:15:00
9:35 PM,68.0,59.0,73,29.98,10.0,SE,9.2,-,N/A,,Clear,140,2012-10-25 02:35:00
9:55 PM,68.0,59.0,73,29.98,10.0,SSE,9.2,-,N/A,,Clear,150,2012-10-25 02:55:00
10:15 PM,69.8,60.8,73,29.98,10.0,SSE,9.2,-,N/A,,Clear,150,2012-10-25 03:15:00
10:36 PM,68.0,59.0,73,29.97,10.0,SE,5.8,-,N/A,,Clear,140,2012-10-25 03:36:00
10:55 PM,68.0,59.0,73,29.97,10.0,SE,5.8,-,N/A,,Clear,140,2012-10-25 03:55:00
11:35 PM,66.2,59.0,78,29.97,10.0,SSE,6.9,-,N/A,,Clear,150,2012-10-25 04:35:00
11:55 PM,66.2,59.0,78,29.97,10.0,SSE,9.2,-,N/A,,Clear,150,2012-10-25 04:55:00